Time,TemperatureF,DewpointF,PressureIn,WindDirection,WindDirectionDegrees,WindSpeedMPH,WindSpeedGustMPH,Humidity,HourlyPrecipIn,Conditions,Clouds,dailyrainin,SoftwareType,DateUTC
2013-05-03 00:01:00,45.6,36.4,30.20,East,84,0.0,0.0,70,0.00,,,0.00,Wunderground v.1.15,2013-05-02 23:01:00,
2013-05-03 00:11:00,45.4,36.5,30.20,East,84,0.0,0.0,71,0.00,,,0.00,Wunderground v.1.15,2013-05-02 23:11:00,
2013-05-03 00:21:00,44.9,36.4,30.20,East,84,0.0,0.0,72,0.00,,,0.00,Wunderground v.1.15,2013-05-02 23:21:00,
2013-05-03 00:26:00,44.7,36.2,30.20,East,84,0.0,0.0,72,0.00,,,0.00,Wunderground v.1.15,2013-05-02 23:26:00,
2013-05-03 00:36:00,44.4,36.3,30.20,East,84,0.0,0.0,73,0.00,,,0.00,Wunderground v.1.15,2013-05-02 23:36:00,
2013-05-03 00:46:00,44.0,36.2,30.20,East,84,0.0,0.0,74,0.00,,,0.00,Wunderground v.1.15,2013-05-02 23:46:00,
2013-05-03 00:56:00,43.6,36.2,30.20,East,84,0.0,0.0,75,0.00,,,0.00,Wunderground v.1.15,2013-05-02 23:56:00,
2013-05-03 01:06:00,43.3,35.9,30.20,East,84,0.0,0.0,75,0.00,,,0.00,Wunderground v.1.15,2013-05-03 00:06:00,
2013-05-03 01:16:00,42.9,35.9,30.19,East,84,0.0,0.0,76,0.00,,,0.00,Wunderground v.1.15,2013-05-03 00:16:00,
2013-05-03 01:21:00,42.8,35.8,30.19,East,84,0.0,0.0,76,0.00,,,0.00,Wunderground v.1.15,2013-05-03 00:21:00,
2013-05-03 01:31:00,42.4,35.7,30.19,East,84,0.0,0.0,77,0.00,,,0.00,Wunderground v.1.15,2013-05-03 00:31:00,
2013-05-03 01:41:00,42.1,36.1,30.19,East,84,0.0,0.0,79,0.00,,,0.00,Wunderground v.1.15,2013-05-03 00:41:00,
2013-05-03 01:46:00,42.0,36.0,30.19,East,84,0.0,0.0,79,0.00,,,0.00,Wunderground v.1.15,2013-05-03 00:46:00,
2013-05-03 01:56:00,41.7,36.0,30.18,East,84,0.0,0.0,80,0.00,,,0.00,Wunderground v.1.15,2013-05-03 00:56:00,
2013-05-03 02:06:00,41.4,36.0,30.18,East,84,0.0,0.0,81,0.00,,,0.00,Wunderground v.1.15,2013-05-03 01:06:00,
2013-05-03 02:11:00,41.3,35.9,30.18,East,84,0.0,0.0,81,0.00,,,0.00,Wunderground v.1.15,2013-05-03 01:11:00,
2013-05-03 02:21:00,41.0,35.6,30.18,East,84,0.0,0.0,81,0.00,,,0.00,Wunderground v.1.15,2013-05-03 01:21:00,
2013-05-03 02:31:00,40.6,35.2,30.18,East,84,0.0,0.0,81,0.00,,,0.00,Wunderground v.1.15,2013-05-03 01:31:00,
2013-05-03 02:36:00,40.4,35.3,30.18,East,84,0.0,0.0,82,0.00,,,0.00,Wunderground v.1.15,2013-05-03 01:36:00,
2013-05-03 02:46:00,40.1,35.0,30.18,East,84,0.0,0.0,82,0.00,,,0.00,Wunderground v.1.15,2013-05-03 01:46:00,
2013-05-03 02:56:00,39.9,35.2,30.17,East,84,0.0,0.0,83,0.00,,,0.00,Wunderground v.1.15,2013-05-03 01:56:00,
2013-05-03 03:01:00,39.8,35.1,30.17,East,84,0.0,0.0,83,0.00,,,0.00,Wunderground v.1.15,2013-05-03 02:01:00,
2013-05-03 03:11:00,39.5,34.8,30.17,East,84,0.0,0.0,83,0.00,,,0.00,Wunderground v.1.15,2013-05-03 02:11:00,
2013-05-03 03:21:00,39.2,34.8,30.17,East,84,0.0,0.0,84,0.00,,,0.00,Wunderground v.1.15,2013-05-03 02:21:00,
2013-05-03 03:31:00,39.0,34.6,30.17,East,84,0.0,0.0,84,0.00,,,0.00,Wunderground v.1.15,2013-05-03 02:31:00,
2013-05-03 03:41:00,38.9,34.8,30.17,East,84,0.0,0.0,85,0.00,,,0.00,Wunderground v.1.15,2013-05-03 02:41:00,
2013-05-03 03:51:00,38.7,34.6,30.17,East,84,0.0,0.0,85,0.00,,,0.00,Wunderground v.1.15,2013-05-03 02:51:00,
2013-05-03 04:01:00,38.5,34.4,30.17,East,84,0.0,0.0,85,0.00,,,0.00,Wunderground v.1.15,2013-05-03 03:01:00,
2013-05-03 04:11:00,38.3,34.2,30.16,East,84,0.0,0.0,85,0.00,,,0.00,Wunderground v.1.15,2013-05-03 03:11:00,
2013-05-03 04:21:00,38.1,34.3,30.16,East,84,0.0,0.0,86,0.00,,,0.00,Wunderground v.1.15,2013-05-03 03:21:00,
2013-05-03 04:31:00,37.9,34.1,30.16,East,84,0.0,0.0,86,0.00,,,0.00,Wunderground v.1.15,2013-05-03 03:31:00,
2013-05-03 04:41:00,37.6,33.8,30.16,East,84,0.0,0.0,86,0.00,,,0.00,Wunderground v.1.15,2013-05-03 03:41:00,
2013-05-03 04:46:00,37.5,33.7,30.16,East,84,0.0,0.0,86,0.00,,,0.00,Wunderground v.1.15,2013-05-03 03:46:00,
2013-05-03 04:56:00,37.3,33.8,30.15,East,84,0.0,0.0,87,0.00,,,0.00,Wunderground v.1.15,2013-05-03 03:56:00,
2013-05-03 05:01:00,37.1,33.6,30.15,East,84,0.0,0.0,87,0.00,,,0.00,Wunderground v.1.15,2013-05-03 04:01:00,
2013-05-03 05:11:00,36.9,33.4,30.15,East,84,0.0,0.0,87,0.00,,,0.00,Wunderground v.1.15,2013-05-03 04:11:00,
2013-05-03 05:16:00,36.7,33.2,30.15,East,84,0.0,0.0,87,0.00,,,0.00,Wunderground v.1.15,2013-05-03 04:16:00,
2013-05-03 05:26:00,36.5,33.0,30.15,East,84,0.0,0.0,87,0.00,,,0.00,Wunderground v.1.15,2013-05-03 04:26:00,
2013-05-03 05:36:00,36.4,33.2,30.15,East,84,0.0,0.0,88,0.00,,,0.00,Wunderground v.1.15,2013-05-03 04:36:00,
2013-05-03 05:41:00,36.3,33.1,30.15,East,84,0.0,0.0,88,0.00,,,0.00,Wunderground v.1.15,2013-05-03 04:41:00,
2013-05-03 05:51:00,36.3,33.4,30.15,East,84,0.0,0.0,89,0.00,,,0.00,Wunderground v.1.15,2013-05-03 04:51:00,
2013-05-03 05:56:00,36.3,33.4,30.15,East,84,0.0,0.0,89,0.00,,,0.00,Wunderground v.1.15,2013-05-03 04:56:00,
2013-05-03 06:06:00,36.5,33.6,30.15,East,84,0.0,0.0,89,0.00,,,0.00,Wunderground v.1.15,2013-05-03 05:06:00,
2013-05-03 06:16:00,37.0,34.3,30.16,East,84,0.0,0.0,90,0.00,,,0.00,Wunderground v.1.15,2013-05-03 05:16:00,
2013-05-03 06:26:00,37.2,34.3,30.16,East,84,0.0,0.0,89,0.00,,,0.00,Wunderground v.1.15,2013-05-03 05:26:00,
2013-05-03 06:41:00,37.6,34.7,30.16,East,84,0.0,0.0,89,0.00,,,0.00,Wunderground v.1.15,2013-05-03 05:41:00,
2013-05-03 06:46:00,37.8,35.1,30.16,East,84,0.0,0.0,90,0.00,,,0.00,Wunderground v.1.15,2013-05-03 05:46:00,
2013-05-03 06:56:00,38.3,35.3,30.16,East,84,1.0,1.0,89,0.00,,,0.00,Wunderground v.1.15,2013-05-03 05:56:00,
2013-05-03 07:06:00,38.9,35.6,30.16,East,84,1.0,1.0,88,0.00,,,0.00,Wunderground v.1.15,2013-05-03 06:06:00,
2013-05-03 07:16:00,39.7,36.1,30.16,East,84,0.0,0.0,87,0.00,,,0.00,Wunderground v.1.15,2013-05-03 06:16:00,
2013-05-03 07:21:00,40.3,36.4,30.16,East,84,0.0,0.0,86,0.00,,,0.00,Wunderground v.1.15,2013-05-03 06:21:00,
2013-05-03 07:31:00,41.5,37.0,30.17,East,84,0.0,0.0,84,0.00,,,0.00,Wunderground v.1.15,2013-05-03 06:31:00,
2013-05-03 07:41:00,42.6,37.5,30.17,East,84,0.0,0.0,82,0.00,,,0.00,Wunderground v.1.15,2013-05-03 06:41:00,
2013-05-03 07:46:00,43.2,37.8,30.16,East,84,0.0,0.0,81,0.00,,,0.00,Wunderground v.1.15,2013-05-03 06:46:00,
2013-05-03 07:56:00,44.6,38.5,30.16,SSW,192,0.0,1.0,79,0.00,,,0.00,Wunderground v.1.15,2013-05-03 06:56:00,
2013-05-03 08:06:00,45.8,38.3,30.16,SSW,192,1.0,1.0,75,0.00,,,0.00,Wunderground v.1.15,2013-05-03 07:06:00,
2013-05-03 08:16:00,47.2,39.0,30.16,SSW,192,0.0,1.0,73,0.00,,,0.00,Wunderground v.1.15,2013-05-03 07:16:00,
2013-05-03 08:21:00,47.7,39.1,30.16,SSW,192,0.0,0.0,72,0.00,,,0.00,Wunderground v.1.15,2013-05-03 07:21:00,
2013-05-03 08:31:00,48.9,39.5,30.16,SSW,192,0.0,1.0,70,0.00,,,0.00,Wunderground v.1.15,2013-05-03 07:31:00,
2013-05-03 08:41:00,49.9,39.8,30.17,SSW,192,1.0,1.0,68,0.00,,,0.00,Wunderground v.1.15,2013-05-03 07:41:00,
2013-05-03 08:51:00,51.0,40.4,30.17,WSW,250,0.0,0.0,67,0.00,,,0.00,Wunderground v.1.15,2013-05-03 07:51:00,
2013-05-03 09:01:00,52.7,40.9,30.17,WNW,282,1.0,1.0,64,0.00,,,0.00,Wunderground v.1.15,2013-05-03 08:01:00,
2013-05-03 09:06:00,53.6,41.3,30.17,NW,320,1.0,1.0,63,0.00,,,0.00,Wunderground v.1.15,2013-05-03 08:06:00,
2013-05-03 09:16:00,54.9,41.7,30.16,NW,319,1.0,2.0,61,0.00,,,0.00,Wunderground v.1.15,2013-05-03 08:16:00,
2013-05-03 09:26:00,56.1,41.5,30.16,NW,309,1.0,1.0,58,0.00,,,0.00,Wunderground v.1.15,2013-05-03 08:26:00,
2013-05-03 09:36:00,57.2,41.2,30.16,WNW,288,1.0,3.0,55,0.00,,,0.00,Wunderground v.1.15,2013-05-03 08:36:00,
2013-05-03 09:46:00,58.0,41.0,30.16,WNW,289,2.0,2.0,53,0.00,,,0.00,Wunderground v.1.15,2013-05-03 08:46:00,
2013-05-03 09:56:00,58.8,40.7,30.16,SW,225,1.0,2.0,51,0.00,,,0.00,Wunderground v.1.15,2013-05-03 08:56:00,
2013-05-03 10:06:00,59.4,40.2,30.16,West,271,1.0,1.0,49,0.00,,,0.00,Wunderground v.1.15,2013-05-03 09:06:00,
2013-05-03 10:16:00,60.1,40.9,30.16,NW,304,1.0,3.0,49,0.00,,,0.00,Wunderground v.1.15,2013-05-03 09:16:00,
2013-05-03 10:26:00,60.7,40.9,30.16,West,269,1.0,1.0,48,0.00,,,0.00,Wunderground v.1.15,2013-05-03 09:26:00,
2013-05-03 10:36:00,61.6,41.2,30.15,WNW,302,1.0,2.0,47,0.00,,,0.00,Wunderground v.1.15,2013-05-03 09:36:00,